Location: Caltech
(34.1382°N, 118.1253°W)
Time: 16:43:04
(UTC-07:00)

Cosmos 2251 Rocket - Visible Passes

Search period start: 02 September 2014 00:00
Search period end: 12 September 2014 00:00
Orbit: 766 x 792 km, 74.0° (Epoch: 02 September)

Date Brightness Start Highest point End Pass type
(mag) Time Alt. Az. Time Alt. Az. Time Alt. Az.
02 Sep 5.6 04:42:38 10° N 04:47:06 28° ENE 04:51:32 10° SE visible
03 Sep 6.3 04:09:51 10° NNE 04:13:17 17° ENE 04:16:41 10° ESE visible
03 Sep 3.7 05:50:49 10° NNW 05:55:50 48° WSW 06:00:48 10° S visible
03 Sep 7.2 20:31:15 10° WNW 20:31:55 10° WNW 20:32:35 10° NW visible
04 Sep 6.8 03:38:26 10° NE 03:39:21 10° ENE 03:40:17 10° ENE visible
04 Sep 3.4 05:17:03 10° NNW 05:22:18 81° WSW 05:27:30 10° SSE visible
04 Sep 6.6 19:54:35 10° WSW 19:57:59 17° WNW 20:01:24 10° NNW visible
05 Sep 4.0 04:43:30 10° N 04:48:41 60° ENE 04:53:49 10° SSE visible
06 Sep 5.0 04:10:11 10° N 04:15:00 36° ENE 04:19:46 10° SE visible
06 Sep 4.6 05:53:07 10° NW 05:56:59 21° W 06:00:51 10° SW visible
07 Sep 5.7 03:37:09 10° NNE 03:41:13 23° ENE 03:45:16 10° ESE visible
07 Sep 4.0 05:18:50 10° NW 05:23:34 36° W 05:28:16 10° SSW visible
08 Sep 6.3 03:04:40 10° NNE 03:07:21 14° ENE 03:10:02 10° E visible
08 Sep 3.4 04:44:55 10° NNW 04:50:04 61° WSW 04:55:11 10° S visible
09 Sep 3.5 04:11:15 10° NNW 04:16:30 80° ENE 04:17:08 68° SE visible
10 Sep 5.0 03:37:48 10° N 03:40:46 31° NNE 03:40:46 31° NNE visible
11 Sep 6.0 03:04:36 10° N 03:05:54 16° NNE 03:05:54 16° NNE visible
